Location: Kapla
(46.2483°N, 15.0094°E)
Time: 13:14:17
(UTC+00:00)

Nadezhda 3 Rocket - Pass Details

Date: 03 July 2021
Orbit: 958 x 998 km, 82.9° (Epoch: 26 July)

Event Time Altitude Azimuth Distance (km) Brightness Sun altitude
Rises 02:10:02 0° 2° (N) 3,710 7.9 -9.0°
Reaches altitude 10° 02:13:31 10° 21° (NNE) 2,763 7.6 -8.6°
Maximum altitude 02:17:43 18° 63° (ENE) 2,226 7.1 -8.1°
Drops below altitude 10° 02:21:55 10° 105° (ESE) 2,764 6.8 -7.6°
Sets 02:25:21 0° 123° (ESE) 3,711 7.2 -7.2°
